Погода в Красноуфимске

Погода в Красноуфимске : погода сейчас, прогноз погоды и архив. Всё, что Вы хотите узнать о погоде в Красноуфимске!

Хотите узнать прогноз погоды в Красноуфимске? Тогда Вам сюда: Погода в Красноуфимске

Поиск расширенной информации на нашем сайте:

Другие новости

Новости СМИ2

Главная страница сайта

Новости сайта

03.07.2017

Напоминаем, что на нашем специализированном сайте Метеоцентр.Азия вы можете получить высокодетализированные автоматические прогнозы погоды по пунктам России, СНГ и мира в авиационном формате (включающие направление и скорость ветра, видимость, явления погоды, количество и форму облачности, нижнюю и верхнюю границу облачности).

Рекомендуем: Работы по хозяйству; гарантия качества.

Погода в Красноуфимске - сегодня

Время (UTC), дата Ветер
(°,м/с) 
Видим.   Явления Облачность Т
(°С)
Тd
(°С)
f(%) Тe
(°С)
Pmin
(гПа)
dP
(гПа)
Po
(мм)
O2
(г/м3)
Тmin Tmax R s Состояние
почвы
09 16.09.17 220 (ЮЗ) 4-11{12}  20000 м    ясно 
+24.5 +10.7 42 +27  1010.9  -0.9  741  272           
18 16.09.17 290 (З) 20000 м    ясно 
+9.9 +8 88 +11  1014.6  742  287           
21 16.09.17 260 (З) 20000 м    ясно 
+11.5 +10.8 95 +14  1015.3  0.7  743  285           
00 17.09.17 230 (ЮЗ) 20000 м    ясно 
+9.9 +7.8 87 +11  1015.6  0.2  743  288           
03 17.09.17 240 (ЮЗ) 20000 м    1/0 верхняя 
[Ci]
+9.7 +8 89 +10  1016.2  0.6  744  288  +8        сухая 
09 17.09.17 260 (З) 3{10}  20000 м    8/8 600 м кучево-дожд. 
[Cb cap]
+17.5 +7.9 53 +18  1016.2  744  280           
12 17.09.17 270 (З) 20000 м    6/6 600 м кучево-дожд. 
[Cb cap]
+17.4 +7.5 52 +18  1015.9  -0.3  744  281           
18 17.09.17 230 (ЮЗ) 20000 м    8/8 600 м 
[Sc diur, vesp]
+12.6 +7.7 72 +13  1015.7  -0.7  743  285           
21 17.09.17 250 (З) 20000 м    8/8 600 м 
[Sc diur, vesp]
+11.4 +7.7 78 +12  1015.1  -0.6  743  286           
00 18.09.17 270 (З) 20000 м    3/3 600 м 
[Sc diur, vesp]
+10.8 +7.9 82 +10  1015.7  0.5  743  287           
03 18.09.17 270 (З) 20000 м    8/8 600 м кучево-дожд. 
[Cb cap]
+10.4 +7.5 82 +10  1017  1.3  744  288  +9.2        влажная 
06 18.09.17 290 (З) 20000 м    10/10 600 м кучево-дожд. 
[Cb cap]
+10 +5.4 73 +10  1018.8  1.7  746  289           
09 18.09.17 280 (З) 20000 м    9/9 600 м кучево-дожд. 
[Cb cap]
+12.5 +5.7 63 +12  1019.5  0.9  746  287           
12 18.09.17 280 (З) 20000 м    9/9 600 м кучево-дожд. 
[Cb cap]
+12 +5.1 63 +12  1020.4  0.7  747  287           
18 18.09.17 270 (З) 20000 м    9/0 верхняя 
[Ci fib]
+9.4 +8.1 92 +10  1020.7  0.2  747  290           
21 18.09.17 тихо ()   20000 м    10/0 верхняя 
[Cs]
+9 +7.5 90 +9  1020.8  747  290           
00 19.09.17 тихо ()   10 км  слаб. ливневой дождь  10/10 600 м кучево-дожд. 
[Cb cap]
+8.6 +8 96 +9  1020.8  747  290           
03 19.09.17 090 (В) 20000 м  {ливн. осадки}  9/9 600 м кучево-дожд. 
[Cb cap]
+9.2 +8.9 98 +10  1020  -0.8  746  289  +8    0.4    влажная 
06 19.09.17 160 (Ю) 20000 м  {ливн. осадки}  10/10 600 м кучево-дожд. 
[Cb cap]
+12.9 +9.2 78 +13  1017.5  -2.1  745  285           
09 19.09.17 160 (Ю) 20000 м    9/0 верхняя 
[Cs]
+18.6 +11.1 62 +23  1014.8  -2.1  743  278           
12 19.09.17 200 (Ю) 20000 м    9/0 верхняя 
[Cs]
+23.2 +11.5 48 +27  1012.9  -1.4  742  273           
15 19.09.17 190 (Ю) 10 км    9/0 верхняя 
[Cs]
+19.2 +12.8 66 +26  1012.3  -0.9  741  277    +23.5       
18 19.09.17 250 (З) 10 км  слаб. ливневой дождь  10/10 600 м кучево-дожд. 
[Cb cap]
+18.8 +13.2 70 +26  1012.2  -0.1  741  277           
21 19.09.17 210 (ЮЗ) 20000 м    ясно 
+16.8 +10.9 68 +21  1011.7  -0.8  741  279           
00 20.09.17 тихо ()   20000 м    ясно 
+11.4 +10 91 +13  1012.5  0.4  741  285           
Время (UTC), дата Ветер
(°,м/с) 
Видим.   Явления Облачность Т
(°С)
Тd
(°С)
f(%) Тe
(°С)
Pmin
(гПа)
dP
(гПа)
Po
(мм)
O2
(г/м3)
Тmin Tmax R s Состояние
почвы

Для получения пояснительной информации подведите курсор к названию столбца.

ПОГОДА в Красноуфимске - архив

Всё, что Вы хотите узнать о погоде в Красноуфимске - удобно и подробно!

Выберите нужную дату (начиная с 1 января 2015* года) и нажмите кнопку "Найти".
Будут отображены архивные сводки погоды по пункту Красноуфимск, начиная с указанной даты.


Отображать данные в формате CSV (для использования в таблицах Excel)


Внимание! Наш архив погоды предназначен исключительно для личного некоммерческого использования в познавательных целях. Если Вам необходимы официальные справки о состоянии погоды (для производственных, юридических, коммерческих и т.п. целей), обращайтесь в органы Росгидромета.

*Примечание: данная дата относится к архиву по метеостанциям СССР (Россия, СНГ, Балтия).
Архив по метеостанциям Зарубежной Европы и Азии (кроме Китая) хранится 10 дней, по другим регионам земного шара (Китай, Африка, Америка, Австралия, Океания) - 1 день.

Красноуфимск - район местоположения метеостанции


Название, широта, долгота, высота метеостанции:
Красноуфимск 56.6°ш. 57.8°д. 206 м над ур. моря [Российская Федерация]

Дополнительная информация

В oтличие oт бoльшинства пoгoдных сайтoв мы публикуем пoдрoбную метеoинфoрмацию в детальнoм прoфессиoнальнoм фoрмате.

Характеристики температуры и влажнoсти вoздуха измеряются на высoте 2 м в тени вдали oт зданий и деревьев.
Скoрoсть ветра измеряется на высoте 10 м (на урoвне рoста челoвека скoрoсть ветра ниже в 1.5-2 раза). Если метеoстанция нахoдится в гoрoде или в лесу, тo скoрoсть ветра занижена на 2-4 м/с пo сравнению с oткрытым местoм. Скoрoсть ветра над акватoриями крупных рек и oзёр, а также на вершинах хoлмoв на 2-5 м/с выше, чем в oбычных услoвиях.
Атмoсфернoе давление в разных тoчках местнoсти мoжет значительнo oтличаться oт давления на метеoстанции, в зависимoсти oт услoвий рельефа (при пoдъёме на 10 м давление пoнижается примернo на 1 мм рт.ст.).